Погода в Бырладе

Румыния     46°13′39″N   27°40′09″E
темп.,
°C
ветер,
м/с
пор.,
м/с
влажн.,
%
обл.,
%
осадки,
мм/ч
давл.,
гПа
погр.,
м
4 декабря, сб
сб423:00+2с5988100 0.7 1015576
02:00+2с4877100 1.9 1016589
05:00+2с3573100 0.1 1016353
08:00+1с3574100 0.1 1016317
11:00+3св335734 0.0 1015530
14:00+4в22485 0.0 1013658
17:00+2юв22585 0.0 101311
20:00+1ююв2267100 0.0 101220
5 декабря, вс
вс523:00+1ююв2478100 0.0 101286
02:000юв23906 0.0 101138
05:000ююв3893100 0.0 1011213
08:000ююв3993100 0.0 1011291
11:00+3ю6982100 0.0 1011501
14:00+6ю697245 0.0 1009673
17:00+3ююв338918 0.0 101052
20:00+2юв2294100 0.0 101029
6 декабря, пн
пн623:00+3ююв2394100 0.0 101055
02:00+3юв229499 0.0 100911
05:00+2юв119730 0.0 100810
08:00+3ююв1199100 0.0 100915
11:00+7ююв1392100 0.0 1008216
14:00+8ю2588100 0.0 1007459
17:00+6ююв119212 0.0 100710
20:00+5юз1194100 0.0 100810
7 декабря, вт
вт723:00+5ссз0094100 0.0 100810
02:00+6ссз1195100 0.0 100816
05:00+6с2296100 0.1 100758
08:00+5с2391100 0.3 1007110
11:00+5с3382100 0.1 1006181
14:00+4с3383100 0.1 1005189
17:00+4ссз348499 0.0 1005184
20:00+3ссз4785100 0.1 1005270
8 декабря, ср
ср823:00+3ссз4893100 3.8 1005343
02:00+3ссз51190100 7.2 1004419
05:00+2сз61293100 2.3 1004521
08:00+2сз71489100 4.3 1005477
11:00+1сз71391100 0.8 1006520
14:00+3сз71381100 1.5 1006573
17:00+1сз5128753 0.0 1008473
20:00+2сз4118578 0.0 1010441